<?xml version="1.0"?>
<gpx xmlns="http://www.topografix.com/GPX/1/1" xmlns:xsi="http://www.w3.org/2001/XMLSchema-instance" version="1.1" creator="GPX RubyGem 1.0.0 -- http://dougfales.github.io/gpx/" xsi:schemaLocation="http://www.topografix.com/GPX/1/1 http://www.topografix.com/GPX/1/1/gpx.xsd">
  <metadata>
    <name/>
    <time>2026-05-07T22:22:55+00:00</time>
    <bound minlat="90.0" minlon="180.0" maxlat="-90.0" maxlon="-180.0"/>
  </metadata>
  <trk>
    <name/>
    <trkseg>
      <trkpt lat="45.363782" lon="7.107245">
        <time>1970-01-01T00:00:00+00:00</time>
        <ele>2502.0</ele>
      </trkpt>
      <trkpt lat="45.362376" lon="7.107876">
        <time>1970-01-01T00:00:00+00:00</time>
        <ele>2502.0</ele>
      </trkpt>
      <trkpt lat="45.361716" lon="7.108372">
        <time>1970-01-01T00:00:00+00:00</time>
        <ele>2504.0</ele>
      </trkpt>
      <trkpt lat="45.360688" lon="7.10892">
        <time>1970-01-01T00:00:00+00:00</time>
        <ele>2505.0</ele>
      </trkpt>
      <trkpt lat="45.359232" lon="7.11004">
        <time>1970-01-01T00:00:00+00:00</time>
        <ele>2509.0</ele>
      </trkpt>
      <trkpt lat="45.358681" lon="7.110192">
        <time>1970-01-01T00:00:00+00:00</time>
        <ele>2513.0</ele>
      </trkpt>
      <trkpt lat="45.356437" lon="7.111411">
        <time>1970-01-01T00:00:00+00:00</time>
        <ele>2528.0</ele>
      </trkpt>
      <trkpt lat="45.35607" lon="7.111502">
        <time>1970-01-01T00:00:00+00:00</time>
        <ele>2529.0</ele>
      </trkpt>
      <trkpt lat="45.354852" lon="7.112115">
        <time>1970-01-01T00:00:00+00:00</time>
        <ele>2533.0</ele>
      </trkpt>
      <trkpt lat="45.353975" lon="7.113081">
        <time>1970-01-01T00:00:00+00:00</time>
        <ele>2536.0</ele>
      </trkpt>
      <trkpt lat="45.352835" lon="7.114002">
        <time>1970-01-01T00:00:00+00:00</time>
        <ele>2538.0</ele>
      </trkpt>
      <trkpt lat="45.351482" lon="7.114823">
        <time>1970-01-01T00:00:00+00:00</time>
        <ele>2542.0</ele>
      </trkpt>
      <trkpt lat="45.351061" lon="7.115316">
        <time>1970-01-01T00:00:00+00:00</time>
        <ele>2543.0</ele>
      </trkpt>
      <trkpt lat="45.350578" lon="7.115679">
        <time>1970-01-01T00:00:00+00:00</time>
        <ele>2544.0</ele>
      </trkpt>
      <trkpt lat="45.349851" lon="7.115816">
        <time>1970-01-01T00:00:00+00:00</time>
        <ele>2547.0</ele>
      </trkpt>
      <trkpt lat="45.349484" lon="7.115799">
        <time>1970-01-01T00:00:00+00:00</time>
        <ele>2550.0</ele>
      </trkpt>
      <trkpt lat="45.348629" lon="7.115326">
        <time>1970-01-01T00:00:00+00:00</time>
        <ele>2555.0</ele>
      </trkpt>
      <trkpt lat="45.347392" lon="7.114796">
        <time>1970-01-01T00:00:00+00:00</time>
        <ele>2565.0</ele>
      </trkpt>
      <trkpt lat="45.346688" lon="7.114503">
        <time>1970-01-01T00:00:00+00:00</time>
        <ele>2575.0</ele>
      </trkpt>
      <trkpt lat="45.346124" lon="7.114428">
        <time>1970-01-01T00:00:00+00:00</time>
        <ele>2580.0</ele>
      </trkpt>
      <trkpt lat="45.345228" lon="7.114008">
        <time>1970-01-01T00:00:00+00:00</time>
        <ele>2583.0</ele>
      </trkpt>
      <trkpt lat="45.344495" lon="7.113929">
        <time>1970-01-01T00:00:00+00:00</time>
        <ele>2584.0</ele>
      </trkpt>
      <trkpt lat="45.343594" lon="7.113628">
        <time>1970-01-01T00:00:00+00:00</time>
        <ele>2591.0</ele>
      </trkpt>
      <trkpt lat="45.342864" lon="7.113711">
        <time>1970-01-01T00:00:00+00:00</time>
        <ele>2610.0</ele>
      </trkpt>
      <trkpt lat="45.342717" lon="7.113872">
        <time>1970-01-01T00:00:00+00:00</time>
        <ele>2617.0</ele>
      </trkpt>
      <trkpt lat="45.34247" lon="7.115126">
        <time>1970-01-01T00:00:00+00:00</time>
        <ele>2637.0</ele>
      </trkpt>
      <trkpt lat="45.342325" lon="7.115606">
        <time>1970-01-01T00:00:00+00:00</time>
        <ele>2647.0</ele>
      </trkpt>
      <trkpt lat="45.342161" lon="7.117147">
        <time>1970-01-01T00:00:00+00:00</time>
        <ele>2686.0</ele>
      </trkpt>
      <trkpt lat="45.341855" lon="7.117419">
        <time>1970-01-01T00:00:00+00:00</time>
        <ele>2707.0</ele>
      </trkpt>
      <trkpt lat="45.341888" lon="7.117675">
        <time>1970-01-01T00:00:00+00:00</time>
        <ele>2713.0</ele>
      </trkpt>
      <trkpt lat="45.341759" lon="7.118427">
        <time>1970-01-01T00:00:00+00:00</time>
        <ele>2749.0</ele>
      </trkpt>
      <trkpt lat="45.341976" lon="7.118845">
        <time>1970-01-01T00:00:00+00:00</time>
        <ele>2755.0</ele>
      </trkpt>
      <trkpt lat="45.341994" lon="7.119105">
        <time>1970-01-01T00:00:00+00:00</time>
        <ele>2765.0</ele>
      </trkpt>
      <trkpt lat="45.341592" lon="7.119043">
        <time>1970-01-01T00:00:00+00:00</time>
        <ele>2774.0</ele>
      </trkpt>
      <trkpt lat="45.341542" lon="7.119291">
        <time>1970-01-01T00:00:00+00:00</time>
        <ele>2781.0</ele>
      </trkpt>
      <trkpt lat="45.341645" lon="7.119504">
        <time>1970-01-01T00:00:00+00:00</time>
        <ele>2782.0</ele>
      </trkpt>
      <trkpt lat="45.340999" lon="7.120413">
        <time>1970-01-01T00:00:00+00:00</time>
        <ele>2807.0</ele>
      </trkpt>
      <trkpt lat="45.340453" lon="7.120505">
        <time>1970-01-01T00:00:00+00:00</time>
        <ele>2821.0</ele>
      </trkpt>
      <trkpt lat="45.338984" lon="7.120511">
        <time>1970-01-01T00:00:00+00:00</time>
        <ele>2846.0</ele>
      </trkpt>
      <trkpt lat="45.336797" lon="7.12085">
        <time>1970-01-01T00:00:00+00:00</time>
        <ele>2871.0</ele>
      </trkpt>
      <trkpt lat="45.335343" lon="7.12079">
        <time>1970-01-01T00:00:00+00:00</time>
        <ele>2908.0</ele>
      </trkpt>
      <trkpt lat="45.334283" lon="7.120355">
        <time>1970-01-01T00:00:00+00:00</time>
        <ele>2922.0</ele>
      </trkpt>
      <trkpt lat="45.333016" lon="7.120185">
        <time>1970-01-01T00:00:00+00:00</time>
        <ele>2942.0</ele>
      </trkpt>
      <trkpt lat="45.332469" lon="7.12022">
        <time>1970-01-01T00:00:00+00:00</time>
        <ele>2957.0</ele>
      </trkpt>
      <trkpt lat="45.33194" lon="7.120411">
        <time>1970-01-01T00:00:00+00:00</time>
        <ele>2978.0</ele>
      </trkpt>
      <trkpt lat="45.3318" lon="7.120573">
        <time>1970-01-01T00:00:00+00:00</time>
        <ele>2986.0</ele>
      </trkpt>
      <trkpt lat="45.33162" lon="7.120571">
        <time>1970-01-01T00:00:00+00:00</time>
        <ele>2992.0</ele>
      </trkpt>
      <trkpt lat="45.331335" lon="7.120884">
        <time>1970-01-01T00:00:00+00:00</time>
        <ele>3014.0</ele>
      </trkpt>
      <trkpt lat="45.331303" lon="7.121136">
        <time>1970-01-01T00:00:00+00:00</time>
        <ele>3021.0</ele>
      </trkpt>
      <trkpt lat="45.330959" lon="7.121287">
        <time>1970-01-01T00:00:00+00:00</time>
        <ele>3049.0</ele>
      </trkpt>
      <trkpt lat="45.330947" lon="7.121549">
        <time>1970-01-01T00:00:00+00:00</time>
        <ele>3056.0</ele>
      </trkpt>
      <trkpt lat="45.330817" lon="7.121734">
        <time>1970-01-01T00:00:00+00:00</time>
        <ele>3069.0</ele>
      </trkpt>
      <trkpt lat="45.330637" lon="7.121748">
        <time>1970-01-01T00:00:00+00:00</time>
        <ele>3081.0</ele>
      </trkpt>
      <trkpt lat="45.330531" lon="7.121531">
        <time>1970-01-01T00:00:00+00:00</time>
        <ele>3084.0</ele>
      </trkpt>
      <trkpt lat="45.330412" lon="7.121731">
        <time>1970-01-01T00:00:00+00:00</time>
        <ele>3092.0</ele>
      </trkpt>
      <trkpt lat="45.330232" lon="7.121772">
        <time>1970-01-01T00:00:00+00:00</time>
        <ele>3104.0</ele>
      </trkpt>
      <trkpt lat="45.330107" lon="7.121588">
        <time>1970-01-01T00:00:00+00:00</time>
        <ele>3108.0</ele>
      </trkpt>
      <trkpt lat="45.330076" lon="7.122112">
        <time>1970-01-01T00:00:00+00:00</time>
        <ele>3122.0</ele>
      </trkpt>
      <trkpt lat="45.329933" lon="7.122291">
        <time>1970-01-01T00:00:00+00:00</time>
        <ele>3135.0</ele>
      </trkpt>
      <trkpt lat="45.32995" lon="7.122547">
        <time>1970-01-01T00:00:00+00:00</time>
        <ele>3142.0</ele>
      </trkpt>
      <trkpt lat="45.330652" lon="7.123368">
        <time>1970-01-01T00:00:00+00:00</time>
        <ele>3144.0</ele>
      </trkpt>
      <trkpt lat="45.330472" lon="7.123411">
        <time>1970-01-01T00:00:00+00:00</time>
        <ele>3151.0</ele>
      </trkpt>
      <trkpt lat="45.330579" lon="7.123624">
        <time>1970-01-01T00:00:00+00:00</time>
        <ele>3159.0</ele>
      </trkpt>
      <trkpt lat="45.330477" lon="7.12464">
        <time>1970-01-01T00:00:00+00:00</time>
        <ele>3203.0</ele>
      </trkpt>
      <trkpt lat="45.330298" lon="7.124577">
        <time>1970-01-01T00:00:00+00:00</time>
        <ele>3208.0</ele>
      </trkpt>
      <trkpt lat="45.33041" lon="7.124778">
        <time>1970-01-01T00:00:00+00:00</time>
        <ele>3210.0</ele>
      </trkpt>
      <trkpt lat="45.330235" lon="7.124707">
        <time>1970-01-01T00:00:00+00:00</time>
        <ele>3215.0</ele>
      </trkpt>
      <trkpt lat="45.330303" lon="7.124944">
        <time>1970-01-01T00:00:00+00:00</time>
        <ele>3221.0</ele>
      </trkpt>
      <trkpt lat="45.330129" lon="7.124874">
        <time>1970-01-01T00:00:00+00:00</time>
        <ele>3226.0</ele>
      </trkpt>
      <trkpt lat="45.329854" lon="7.125211">
        <time>1970-01-01T00:00:00+00:00</time>
        <ele>3252.0</ele>
      </trkpt>
      <trkpt lat="45.329942" lon="7.125442">
        <time>1970-01-01T00:00:00+00:00</time>
        <ele>3257.0</ele>
      </trkpt>
      <trkpt lat="45.329968" lon="7.125698">
        <time>1970-01-01T00:00:00+00:00</time>
        <ele>3266.0</ele>
      </trkpt>
      <trkpt lat="45.329799" lon="7.125612">
        <time>1970-01-01T00:00:00+00:00</time>
        <ele>3272.0</ele>
      </trkpt>
      <trkpt lat="45.329744" lon="7.125858">
        <time>1970-01-01T00:00:00+00:00</time>
        <ele>3295.0</ele>
      </trkpt>
      <trkpt lat="45.329557" lon="7.125895">
        <time>1970-01-01T00:00:00+00:00</time>
        <ele>3309.0</ele>
      </trkpt>
      <trkpt lat="45.329208" lon="7.12578">
        <time>1970-01-01T00:00:00+00:00</time>
        <ele>3305.0</ele>
      </trkpt>
      <trkpt lat="45.329037" lon="7.125863">
        <time>1970-01-01T00:00:00+00:00</time>
        <ele>3315.0</ele>
      </trkpt>
      <trkpt lat="45.328917" lon="7.126056">
        <time>1970-01-01T00:00:00+00:00</time>
        <ele>3327.0</ele>
      </trkpt>
      <trkpt lat="45.328939" lon="7.126313">
        <time>1970-01-01T00:00:00+00:00</time>
        <ele>3335.0</ele>
      </trkpt>
      <trkpt lat="45.328764" lon="7.126256">
        <time>1970-01-01T00:00:00+00:00</time>
        <ele>3342.0</ele>
      </trkpt>
      <trkpt lat="45.328766" lon="7.126512">
        <time>1970-01-01T00:00:00+00:00</time>
        <ele>3348.0</ele>
      </trkpt>
      <trkpt lat="45.328684" lon="7.126742">
        <time>1970-01-01T00:00:00+00:00</time>
        <ele>3358.0</ele>
      </trkpt>
      <trkpt lat="45.32877" lon="7.126968">
        <time>1970-01-01T00:00:00+00:00</time>
        <ele>3360.0</ele>
      </trkpt>
      <trkpt lat="45.328761" lon="7.127227">
        <time>1970-01-01T00:00:00+00:00</time>
        <ele>3367.0</ele>
      </trkpt>
      <trkpt lat="45.328887" lon="7.127416">
        <time>1970-01-01T00:00:00+00:00</time>
        <ele>3371.0</ele>
      </trkpt>
      <trkpt lat="45.328871" lon="7.127674">
        <time>1970-01-01T00:00:00+00:00</time>
        <ele>3382.0</ele>
      </trkpt>
      <trkpt lat="45.328741" lon="7.127853">
        <time>1970-01-01T00:00:00+00:00</time>
        <ele>3390.0</ele>
      </trkpt>
      <trkpt lat="45.328764" lon="7.128108">
        <time>1970-01-01T00:00:00+00:00</time>
        <ele>3401.0</ele>
      </trkpt>
      <trkpt lat="45.329116" lon="7.128199">
        <time>1970-01-01T00:00:00+00:00</time>
        <ele>3414.0</ele>
      </trkpt>
      <trkpt lat="45.329218" lon="7.128418">
        <time>1970-01-01T00:00:00+00:00</time>
        <ele>3431.0</ele>
      </trkpt>
      <trkpt lat="45.329184" lon="7.128932">
        <time>1970-01-01T00:00:00+00:00</time>
        <ele>3462.0</ele>
      </trkpt>
      <trkpt lat="45.328863" lon="7.129558">
        <time>1970-01-01T00:00:00+00:00</time>
        <ele>3485.0</ele>
      </trkpt>
      <trkpt lat="45.32904" lon="7.129638">
        <time>1970-01-01T00:00:00+00:00</time>
        <ele>3501.0</ele>
      </trkpt>
      <trkpt lat="45.329165" lon="7.130125">
        <time>1970-01-01T00:00:00+00:00</time>
        <ele>3516.0</ele>
      </trkpt>
      <trkpt lat="45.329074" lon="7.129902">
        <time>1970-01-01T00:00:00+00:00</time>
        <ele>3510.0</ele>
      </trkpt>
      <trkpt lat="45.329096" lon="7.129644">
        <time>1970-01-01T00:00:00+00:00</time>
        <ele>3506.0</ele>
      </trkpt>
      <trkpt lat="45.328916" lon="7.129653">
        <time>1970-01-01T00:00:00+00:00</time>
        <ele>3491.0</ele>
      </trkpt>
      <trkpt lat="45.329304" lon="7.128732">
        <time>1970-01-01T00:00:00+00:00</time>
        <ele>3452.0</ele>
      </trkpt>
      <trkpt lat="45.32917" lon="7.128561">
        <time>1970-01-01T00:00:00+00:00</time>
        <ele>3438.0</ele>
      </trkpt>
      <trkpt lat="45.329225" lon="7.128307">
        <time>1970-01-01T00:00:00+00:00</time>
        <ele>3425.0</ele>
      </trkpt>
      <trkpt lat="45.329097" lon="7.128111">
        <time>1970-01-01T00:00:00+00:00</time>
        <ele>3408.0</ele>
      </trkpt>
      <trkpt lat="45.329058" lon="7.127857">
        <time>1970-01-01T00:00:00+00:00</time>
        <ele>3394.0</ele>
      </trkpt>
      <trkpt lat="45.328843" lon="7.12736">
        <time>1970-01-01T00:00:00+00:00</time>
        <ele>3370.0</ele>
      </trkpt>
      <trkpt lat="45.328696" lon="7.127158">
        <time>1970-01-01T00:00:00+00:00</time>
        <ele>3368.0</ele>
      </trkpt>
      <trkpt lat="45.328792" lon="7.126604">
        <time>1970-01-01T00:00:00+00:00</time>
        <ele>3349.0</ele>
      </trkpt>
      <trkpt lat="45.328511" lon="7.125842">
        <time>1970-01-01T00:00:00+00:00</time>
        <ele>3342.0</ele>
      </trkpt>
      <trkpt lat="45.328514" lon="7.125563">
        <time>1970-01-01T00:00:00+00:00</time>
        <ele>3333.0</ele>
      </trkpt>
      <trkpt lat="45.328748" lon="7.125073">
        <time>1970-01-01T00:00:00+00:00</time>
        <ele>3303.0</ele>
      </trkpt>
      <trkpt lat="45.32876" lon="7.1248">
        <time>1970-01-01T00:00:00+00:00</time>
        <ele>3292.0</ele>
      </trkpt>
      <trkpt lat="45.328891" lon="7.124623">
        <time>1970-01-01T00:00:00+00:00</time>
        <ele>3278.0</ele>
      </trkpt>
      <trkpt lat="45.328651" lon="7.12391">
        <time>1970-01-01T00:00:00+00:00</time>
        <ele>3268.0</ele>
      </trkpt>
      <trkpt lat="45.328993" lon="7.123277">
        <time>1970-01-01T00:00:00+00:00</time>
        <ele>3224.0</ele>
      </trkpt>
      <trkpt lat="45.329147" lon="7.12274">
        <time>1970-01-01T00:00:00+00:00</time>
        <ele>3195.0</ele>
      </trkpt>
      <trkpt lat="45.329174" lon="7.121569">
        <time>1970-01-01T00:00:00+00:00</time>
        <ele>3158.0</ele>
      </trkpt>
      <trkpt lat="45.329283" lon="7.12065">
        <time>1970-01-01T00:00:00+00:00</time>
        <ele>3139.0</ele>
      </trkpt>
      <trkpt lat="45.329372" lon="7.120401">
        <time>1970-01-01T00:00:00+00:00</time>
        <ele>3133.0</ele>
      </trkpt>
      <trkpt lat="45.32969" lon="7.11967">
        <time>1970-01-01T00:00:00+00:00</time>
        <ele>3112.0</ele>
      </trkpt>
      <trkpt lat="45.329846" lon="7.119493">
        <time>1970-01-01T00:00:00+00:00</time>
        <ele>3099.0</ele>
      </trkpt>
      <trkpt lat="45.330145" lon="7.118823">
        <time>1970-01-01T00:00:00+00:00</time>
        <ele>3074.0</ele>
      </trkpt>
      <trkpt lat="45.33068" lon="7.118346">
        <time>1970-01-01T00:00:00+00:00</time>
        <ele>3053.0</ele>
      </trkpt>
      <trkpt lat="45.330931" lon="7.117879">
        <time>1970-01-01T00:00:00+00:00</time>
        <ele>3038.0</ele>
      </trkpt>
      <trkpt lat="45.331119" lon="7.117106">
        <time>1970-01-01T00:00:00+00:00</time>
        <ele>3035.0</ele>
      </trkpt>
      <trkpt lat="45.330969" lon="7.116951">
        <time>1970-01-01T00:00:00+00:00</time>
        <ele>3038.0</ele>
      </trkpt>
      <trkpt lat="45.331742" lon="7.115144">
        <time>1970-01-01T00:00:00+00:00</time>
        <ele>3029.0</ele>
      </trkpt>
      <trkpt lat="45.331719" lon="7.114888">
        <time>1970-01-01T00:00:00+00:00</time>
        <ele>3039.0</ele>
      </trkpt>
      <trkpt lat="45.332014" lon="7.114567">
        <time>1970-01-01T00:00:00+00:00</time>
        <ele>3040.0</ele>
      </trkpt>
      <trkpt lat="45.33191" lon="7.114353">
        <time>1970-01-01T00:00:00+00:00</time>
        <ele>3048.0</ele>
      </trkpt>
      <trkpt lat="45.331946" lon="7.114093">
        <time>1970-01-01T00:00:00+00:00</time>
        <ele>3054.0</ele>
      </trkpt>
      <trkpt lat="45.331736" lon="7.113675">
        <time>1970-01-01T00:00:00+00:00</time>
        <ele>3083.0</ele>
      </trkpt>
      <trkpt lat="45.331382" lon="7.113763">
        <time>1970-01-01T00:00:00+00:00</time>
        <ele>3096.0</ele>
      </trkpt>
      <trkpt lat="45.331488" lon="7.113543">
        <time>1970-01-01T00:00:00+00:00</time>
        <ele>3099.0</ele>
      </trkpt>
      <trkpt lat="45.331354" lon="7.113368">
        <time>1970-01-01T00:00:00+00:00</time>
        <ele>3112.0</ele>
      </trkpt>
      <trkpt lat="45.331186" lon="7.11346">
        <time>1970-01-01T00:00:00+00:00</time>
        <ele>3119.0</ele>
      </trkpt>
      <trkpt lat="45.331249" lon="7.113217">
        <time>1970-01-01T00:00:00+00:00</time>
        <ele>3122.0</ele>
      </trkpt>
      <trkpt lat="45.331567" lon="7.112593">
        <time>1970-01-01T00:00:00+00:00</time>
        <ele>3128.0</ele>
      </trkpt>
      <trkpt lat="45.331693" lon="7.112401">
        <time>1970-01-01T00:00:00+00:00</time>
        <ele>3130.0</ele>
      </trkpt>
      <trkpt lat="45.33201" lon="7.112137">
        <time>1970-01-01T00:00:00+00:00</time>
        <ele>3134.0</ele>
      </trkpt>
      <trkpt lat="45.332235" lon="7.11089">
        <time>1970-01-01T00:00:00+00:00</time>
        <ele>3162.0</ele>
      </trkpt>
      <trkpt lat="45.332133" lon="7.110676">
        <time>1970-01-01T00:00:00+00:00</time>
        <ele>3170.0</ele>
      </trkpt>
      <trkpt lat="45.331774" lon="7.11058">
        <time>1970-01-01T00:00:00+00:00</time>
        <ele>3182.0</ele>
      </trkpt>
      <trkpt lat="45.331791" lon="7.110318">
        <time>1970-01-01T00:00:00+00:00</time>
        <ele>3195.0</ele>
      </trkpt>
      <trkpt lat="45.331935" lon="7.110157">
        <time>1970-01-01T00:00:00+00:00</time>
        <ele>3198.0</ele>
      </trkpt>
      <trkpt lat="45.331441" lon="7.109838">
        <time>1970-01-01T00:00:00+00:00</time>
        <ele>3234.0</ele>
      </trkpt>
      <trkpt lat="45.331604" lon="7.109727">
        <time>1970-01-01T00:00:00+00:00</time>
        <ele>3228.0</ele>
      </trkpt>
      <trkpt lat="45.331533" lon="7.109492">
        <time>1970-01-01T00:00:00+00:00</time>
        <ele>3241.0</ele>
      </trkpt>
      <trkpt lat="45.331358" lon="7.109413">
        <time>1970-01-01T00:00:00+00:00</time>
        <ele>3255.0</ele>
      </trkpt>
      <trkpt lat="45.331527" lon="7.109318">
        <time>1970-01-01T00:00:00+00:00</time>
        <ele>3249.0</ele>
      </trkpt>
      <trkpt lat="45.331441" lon="7.109084">
        <time>1970-01-01T00:00:00+00:00</time>
        <ele>3263.0</ele>
      </trkpt>
      <trkpt lat="45.33175" lon="7.108813">
        <time>1970-01-01T00:00:00+00:00</time>
        <ele>3264.0</ele>
      </trkpt>
      <trkpt lat="45.331452" lon="7.108515">
        <time>1970-01-01T00:00:00+00:00</time>
        <ele>3286.0</ele>
      </trkpt>
      <trkpt lat="45.331278" lon="7.108443">
        <time>1970-01-01T00:00:00+00:00</time>
        <ele>3297.0</ele>
      </trkpt>
      <trkpt lat="45.330941" lon="7.108611">
        <time>1970-01-01T00:00:00+00:00</time>
        <ele>3311.0</ele>
      </trkpt>
      <trkpt lat="45.331078" lon="7.108439">
        <time>1970-01-01T00:00:00+00:00</time>
        <ele>3308.0</ele>
      </trkpt>
      <trkpt lat="45.330719" lon="7.108373">
        <time>1970-01-01T00:00:00+00:00</time>
        <ele>3334.0</ele>
      </trkpt>
      <trkpt lat="45.330553" lon="7.108273">
        <time>1970-01-01T00:00:00+00:00</time>
        <ele>3347.0</ele>
      </trkpt>
      <trkpt lat="45.330205" lon="7.108387">
        <time>1970-01-01T00:00:00+00:00</time>
        <ele>3359.0</ele>
      </trkpt>
      <trkpt lat="45.329913" lon="7.1087">
        <time>1970-01-01T00:00:00+00:00</time>
        <ele>3361.0</ele>
      </trkpt>
      <trkpt lat="45.329579" lon="7.108892">
        <time>1970-01-01T00:00:00+00:00</time>
        <ele>3372.0</ele>
      </trkpt>
      <trkpt lat="45.329451" lon="7.109082">
        <time>1970-01-01T00:00:00+00:00</time>
        <ele>3374.0</ele>
      </trkpt>
      <trkpt lat="45.328975" lon="7.109474">
        <time>1970-01-01T00:00:00+00:00</time>
        <ele>3390.0</ele>
      </trkpt>
      <trkpt lat="45.328583" lon="7.110008">
        <time>1970-01-01T00:00:00+00:00</time>
        <ele>3395.0</ele>
      </trkpt>
      <trkpt lat="45.32779" lon="7.110629">
        <time>1970-01-01T00:00:00+00:00</time>
        <ele>3412.0</ele>
      </trkpt>
      <trkpt lat="45.327676" lon="7.110829">
        <time>1970-01-01T00:00:00+00:00</time>
        <ele>3412.0</ele>
      </trkpt>
      <trkpt lat="45.327331" lon="7.111003">
        <time>1970-01-01T00:00:00+00:00</time>
        <ele>3416.0</ele>
      </trkpt>
      <trkpt lat="45.327178" lon="7.110858">
        <time>1970-01-01T00:00:00+00:00</time>
        <ele>3422.0</ele>
      </trkpt>
      <trkpt lat="45.326814" lon="7.110872">
        <time>1970-01-01T00:00:00+00:00</time>
        <ele>3433.0</ele>
      </trkpt>
      <trkpt lat="45.327112" lon="7.110216">
        <time>1970-01-01T00:00:00+00:00</time>
        <ele>3447.0</ele>
      </trkpt>
      <trkpt lat="45.326758" lon="7.110318">
        <time>1970-01-01T00:00:00+00:00</time>
        <ele>3456.0</ele>
      </trkpt>
      <trkpt lat="45.326926" lon="7.109864">
        <time>1970-01-01T00:00:00+00:00</time>
        <ele>3466.0</ele>
      </trkpt>
      <trkpt lat="45.327616" lon="7.109499">
        <time>1970-01-01T00:00:00+00:00</time>
        <ele>3458.0</ele>
      </trkpt>
      <trkpt lat="45.328544" lon="7.108266">
        <time>1970-01-01T00:00:00+00:00</time>
        <ele>3459.0</ele>
      </trkpt>
      <trkpt lat="45.329144" lon="7.107681">
        <time>1970-01-01T00:00:00+00:00</time>
        <ele>3477.0</ele>
      </trkpt>
      <trkpt lat="45.329644" lon="7.106931">
        <time>1970-01-01T00:00:00+00:00</time>
        <ele>3486.0</ele>
      </trkpt>
      <trkpt lat="45.329821" lon="7.106879">
        <time>1970-01-01T00:00:00+00:00</time>
        <ele>3487.0</ele>
      </trkpt>
      <trkpt lat="45.330304" lon="7.106104">
        <time>1970-01-01T00:00:00+00:00</time>
        <ele>3497.0</ele>
      </trkpt>
      <trkpt lat="45.330705" lon="7.105593">
        <time>1970-01-01T00:00:00+00:00</time>
        <ele>3516.0</ele>
      </trkpt>
      <trkpt lat="45.330867" lon="7.10548">
        <time>1970-01-01T00:00:00+00:00</time>
        <ele>3525.0</ele>
      </trkpt>
      <trkpt lat="45.331143" lon="7.104817">
        <time>1970-01-01T00:00:00+00:00</time>
        <ele>3561.0</ele>
      </trkpt>
      <trkpt lat="45.331602" lon="7.104024">
        <time>1970-01-01T00:00:00+00:00</time>
        <ele>3596.0</ele>
      </trkpt>
      <trkpt lat="45.331764" lon="7.103562">
        <time>1970-01-01T00:00:00+00:00</time>
        <ele>3612.0</ele>
      </trkpt>
      <trkpt lat="45.331756" lon="7.103302">
        <time>1970-01-01T00:00:00+00:00</time>
        <ele>3614.0</ele>
      </trkpt>
      <trkpt lat="45.331815" lon="7.103053">
        <time>1970-01-01T00:00:00+00:00</time>
        <ele>3615.0</ele>
      </trkpt>
      <trkpt lat="45.332063" lon="7.102666">
        <time>1970-01-01T00:00:00+00:00</time>
        <ele>3619.0</ele>
      </trkpt>
      <trkpt lat="45.332209" lon="7.102504">
        <time>1970-01-01T00:00:00+00:00</time>
        <ele>3621.0</ele>
      </trkpt>
      <trkpt lat="45.33288" lon="7.102137">
        <time>1970-01-01T00:00:00+00:00</time>
        <ele>3625.0</ele>
      </trkpt>
      <trkpt lat="45.333065" lon="7.102117">
        <time>1970-01-01T00:00:00+00:00</time>
        <ele>3627.0</ele>
      </trkpt>
      <trkpt lat="45.333206" lon="7.101948">
        <time>1970-01-01T00:00:00+00:00</time>
        <ele>3630.0</ele>
      </trkpt>
      <trkpt lat="45.333382" lon="7.10186">
        <time>1970-01-01T00:00:00+00:00</time>
        <ele>3626.0</ele>
      </trkpt>
      <trkpt lat="45.33346" lon="7.101359">
        <time>1970-01-01T00:00:00+00:00</time>
        <ele>3612.0</ele>
      </trkpt>
      <trkpt lat="45.333608" lon="7.101173">
        <time>1970-01-01T00:00:00+00:00</time>
        <ele>3594.0</ele>
      </trkpt>
      <trkpt lat="45.33379" lon="7.101154">
        <time>1970-01-01T00:00:00+00:00</time>
        <ele>3589.0</ele>
      </trkpt>
      <trkpt lat="45.33416" lon="7.100574">
        <time>1970-01-01T00:00:00+00:00</time>
        <ele>3558.0</ele>
      </trkpt>
      <trkpt lat="45.33434" lon="7.100519">
        <time>1970-01-01T00:00:00+00:00</time>
        <ele>3552.0</ele>
      </trkpt>
      <trkpt lat="45.334407" lon="7.100277">
        <time>1970-01-01T00:00:00+00:00</time>
        <ele>3542.0</ele>
      </trkpt>
      <trkpt lat="45.334128" lon="7.099852">
        <time>1970-01-01T00:00:00+00:00</time>
        <ele>3526.0</ele>
      </trkpt>
      <trkpt lat="45.333614" lon="7.099379">
        <time>1970-01-01T00:00:00+00:00</time>
        <ele>3513.0</ele>
      </trkpt>
      <trkpt lat="45.333484" lon="7.099162">
        <time>1970-01-01T00:00:00+00:00</time>
        <ele>3508.0</ele>
      </trkpt>
      <trkpt lat="45.33357" lon="7.098915">
        <time>1970-01-01T00:00:00+00:00</time>
        <ele>3500.0</ele>
      </trkpt>
      <trkpt lat="45.333591" lon="7.098616">
        <time>1970-01-01T00:00:00+00:00</time>
        <ele>3491.0</ele>
      </trkpt>
      <trkpt lat="45.333706" lon="7.098382">
        <time>1970-01-01T00:00:00+00:00</time>
        <ele>3483.0</ele>
      </trkpt>
      <trkpt lat="45.333691" lon="7.098123">
        <time>1970-01-01T00:00:00+00:00</time>
        <ele>3476.0</ele>
      </trkpt>
      <trkpt lat="45.333821" lon="7.097084">
        <time>1970-01-01T00:00:00+00:00</time>
        <ele>3451.0</ele>
      </trkpt>
      <trkpt lat="45.334257" lon="7.095303">
        <time>1970-01-01T00:00:00+00:00</time>
        <ele>3427.0</ele>
      </trkpt>
      <trkpt lat="45.334305" lon="7.094457">
        <time>1970-01-01T00:00:00+00:00</time>
        <ele>3420.0</ele>
      </trkpt>
      <trkpt lat="45.334465" lon="7.093866">
        <time>1970-01-01T00:00:00+00:00</time>
        <ele>3412.0</ele>
      </trkpt>
      <trkpt lat="45.335099" lon="7.092314">
        <time>1970-01-01T00:00:00+00:00</time>
        <ele>3385.0</ele>
      </trkpt>
      <trkpt lat="45.335083" lon="7.092025">
        <time>1970-01-01T00:00:00+00:00</time>
        <ele>3382.0</ele>
      </trkpt>
      <trkpt lat="45.335143" lon="7.09173">
        <time>1970-01-01T00:00:00+00:00</time>
        <ele>3376.0</ele>
      </trkpt>
      <trkpt lat="45.334958" lon="7.091249">
        <time>1970-01-01T00:00:00+00:00</time>
        <ele>3371.0</ele>
      </trkpt>
      <trkpt lat="45.334669" lon="7.090911">
        <time>1970-01-01T00:00:00+00:00</time>
        <ele>3367.0</ele>
      </trkpt>
      <trkpt lat="45.334773" lon="7.089779">
        <time>1970-01-01T00:00:00+00:00</time>
        <ele>3333.0</ele>
      </trkpt>
      <trkpt lat="45.334432" lon="7.089071">
        <time>1970-01-01T00:00:00+00:00</time>
        <ele>3310.0</ele>
      </trkpt>
      <trkpt lat="45.333411" lon="7.087718">
        <time>1970-01-01T00:00:00+00:00</time>
        <ele>3300.0</ele>
      </trkpt>
      <trkpt lat="45.333374" lon="7.087464">
        <time>1970-01-01T00:00:00+00:00</time>
        <ele>3295.0</ele>
      </trkpt>
      <trkpt lat="45.333544" lon="7.087325">
        <time>1970-01-01T00:00:00+00:00</time>
        <ele>3289.0</ele>
      </trkpt>
      <trkpt lat="45.334172" lon="7.087172">
        <time>1970-01-01T00:00:00+00:00</time>
        <ele>3281.0</ele>
      </trkpt>
      <trkpt lat="45.335377" lon="7.087059">
        <time>1970-01-01T00:00:00+00:00</time>
        <ele>3264.0</ele>
      </trkpt>
      <trkpt lat="45.335441" lon="7.086804">
        <time>1970-01-01T00:00:00+00:00</time>
        <ele>3255.0</ele>
      </trkpt>
      <trkpt lat="45.335309" lon="7.086604">
        <time>1970-01-01T00:00:00+00:00</time>
        <ele>3252.0</ele>
      </trkpt>
      <trkpt lat="45.335542" lon="7.086519">
        <time>1970-01-01T00:00:00+00:00</time>
        <ele>3243.0</ele>
      </trkpt>
      <trkpt lat="45.335724" lon="7.086556">
        <time>1970-01-01T00:00:00+00:00</time>
        <ele>3239.0</ele>
      </trkpt>
      <trkpt lat="45.335898" lon="7.086398">
        <time>1970-01-01T00:00:00+00:00</time>
        <ele>3228.0</ele>
      </trkpt>
      <trkpt lat="45.335909" lon="7.086127">
        <time>1970-01-01T00:00:00+00:00</time>
        <ele>3219.0</ele>
      </trkpt>
      <trkpt lat="45.335981" lon="7.085883">
        <time>1970-01-01T00:00:00+00:00</time>
        <ele>3212.0</ele>
      </trkpt>
      <trkpt lat="45.336174" lon="7.08586">
        <time>1970-01-01T00:00:00+00:00</time>
        <ele>3209.0</ele>
      </trkpt>
      <trkpt lat="45.336222" lon="7.085607">
        <time>1970-01-01T00:00:00+00:00</time>
        <ele>3202.0</ele>
      </trkpt>
      <trkpt lat="45.336175" lon="7.085054">
        <time>1970-01-01T00:00:00+00:00</time>
        <ele>3188.0</ele>
      </trkpt>
      <trkpt lat="45.336315" lon="7.083941">
        <time>1970-01-01T00:00:00+00:00</time>
        <ele>3158.0</ele>
      </trkpt>
      <trkpt lat="45.336269" lon="7.083393">
        <time>1970-01-01T00:00:00+00:00</time>
        <ele>3145.0</ele>
      </trkpt>
      <trkpt lat="45.336374" lon="7.08289">
        <time>1970-01-01T00:00:00+00:00</time>
        <ele>3134.0</ele>
      </trkpt>
      <trkpt lat="45.336429" lon="7.08141">
        <time>1970-01-01T00:00:00+00:00</time>
        <ele>3117.0</ele>
      </trkpt>
      <trkpt lat="45.336301" lon="7.080835">
        <time>1970-01-01T00:00:00+00:00</time>
        <ele>3113.0</ele>
      </trkpt>
      <trkpt lat="45.335963" lon="7.07983">
        <time>1970-01-01T00:00:00+00:00</time>
        <ele>3107.0</ele>
      </trkpt>
      <trkpt lat="45.335581" lon="7.079536">
        <time>1970-01-01T00:00:00+00:00</time>
        <ele>3096.0</ele>
      </trkpt>
      <trkpt lat="45.335096" lon="7.079014">
        <time>1970-01-01T00:00:00+00:00</time>
        <ele>3078.0</ele>
      </trkpt>
      <trkpt lat="45.334489" lon="7.078264">
        <time>1970-01-01T00:00:00+00:00</time>
        <ele>3051.0</ele>
      </trkpt>
      <trkpt lat="45.334187" lon="7.077783">
        <time>1970-01-01T00:00:00+00:00</time>
        <ele>3043.0</ele>
      </trkpt>
      <trkpt lat="45.333292" lon="7.076878">
        <time>1970-01-01T00:00:00+00:00</time>
        <ele>3028.0</ele>
      </trkpt>
      <trkpt lat="45.333015" lon="7.076483">
        <time>1970-01-01T00:00:00+00:00</time>
        <ele>3026.0</ele>
      </trkpt>
      <trkpt lat="45.331662" lon="7.076118">
        <time>1970-01-01T00:00:00+00:00</time>
        <ele>2995.0</ele>
      </trkpt>
      <trkpt lat="45.331452" lon="7.076013">
        <time>1970-01-01T00:00:00+00:00</time>
        <ele>2992.0</ele>
      </trkpt>
      <trkpt lat="45.331337" lon="7.075788">
        <time>1970-01-01T00:00:00+00:00</time>
        <ele>2989.0</ele>
      </trkpt>
      <trkpt lat="45.330987" lon="7.075944">
        <time>1970-01-01T00:00:00+00:00</time>
        <ele>2982.0</ele>
      </trkpt>
      <trkpt lat="45.330826" lon="7.075761">
        <time>1970-01-01T00:00:00+00:00</time>
        <ele>2975.0</ele>
      </trkpt>
      <trkpt lat="45.33052" lon="7.074928">
        <time>1970-01-01T00:00:00+00:00</time>
        <ele>2957.0</ele>
      </trkpt>
      <trkpt lat="45.330088" lon="7.074182">
        <time>1970-01-01T00:00:00+00:00</time>
        <ele>2938.0</ele>
      </trkpt>
      <trkpt lat="45.329573" lon="7.072891">
        <time>1970-01-01T00:00:00+00:00</time>
        <ele>2930.0</ele>
      </trkpt>
      <trkpt lat="45.329623" lon="7.071947">
        <time>1970-01-01T00:00:00+00:00</time>
        <ele>2921.0</ele>
      </trkpt>
      <trkpt lat="45.329514" lon="7.071378">
        <time>1970-01-01T00:00:00+00:00</time>
        <ele>2912.0</ele>
      </trkpt>
      <trkpt lat="45.329477" lon="7.070455">
        <time>1970-01-01T00:00:00+00:00</time>
        <ele>2894.0</ele>
      </trkpt>
      <trkpt lat="45.329375" lon="7.06985">
        <time>1970-01-01T00:00:00+00:00</time>
        <ele>2888.0</ele>
      </trkpt>
      <trkpt lat="45.329077" lon="7.069082">
        <time>1970-01-01T00:00:00+00:00</time>
        <ele>2883.0</ele>
      </trkpt>
      <trkpt lat="45.328661" lon="7.068451">
        <time>1970-01-01T00:00:00+00:00</time>
        <ele>2871.0</ele>
      </trkpt>
      <trkpt lat="45.328462" lon="7.068361">
        <time>1970-01-01T00:00:00+00:00</time>
        <ele>2865.0</ele>
      </trkpt>
      <trkpt lat="45.328381" lon="7.068078">
        <time>1970-01-01T00:00:00+00:00</time>
        <ele>2860.0</ele>
      </trkpt>
      <trkpt lat="45.328517" lon="7.06752">
        <time>1970-01-01T00:00:00+00:00</time>
        <ele>2852.0</ele>
      </trkpt>
      <trkpt lat="45.328585" lon="7.066347">
        <time>1970-01-01T00:00:00+00:00</time>
        <ele>2832.0</ele>
      </trkpt>
      <trkpt lat="45.328549" lon="7.066089">
        <time>1970-01-01T00:00:00+00:00</time>
        <ele>2823.0</ele>
      </trkpt>
      <trkpt lat="45.328711" lon="7.065944">
        <time>1970-01-01T00:00:00+00:00</time>
        <ele>2828.0</ele>
      </trkpt>
      <trkpt lat="45.328948" lon="7.065447">
        <time>1970-01-01T00:00:00+00:00</time>
        <ele>2805.0</ele>
      </trkpt>
      <trkpt lat="45.329023" lon="7.064831">
        <time>1970-01-01T00:00:00+00:00</time>
        <ele>2784.0</ele>
      </trkpt>
      <trkpt lat="45.329225" lon="7.06416">
        <time>1970-01-01T00:00:00+00:00</time>
        <ele>2770.0</ele>
      </trkpt>
      <trkpt lat="45.329637" lon="7.062338">
        <time>1970-01-01T00:00:00+00:00</time>
        <ele>2748.0</ele>
      </trkpt>
      <trkpt lat="45.329744" lon="7.06213">
        <time>1970-01-01T00:00:00+00:00</time>
        <ele>2748.0</ele>
      </trkpt>
      <trkpt lat="45.329674" lon="7.061294">
        <time>1970-01-01T00:00:00+00:00</time>
        <ele>2727.0</ele>
      </trkpt>
      <trkpt lat="45.329722" lon="7.060704">
        <time>1970-01-01T00:00:00+00:00</time>
        <ele>2713.0</ele>
      </trkpt>
      <trkpt lat="45.32971" lon="7.059734">
        <time>1970-01-01T00:00:00+00:00</time>
        <ele>2694.0</ele>
      </trkpt>
      <trkpt lat="45.329542" lon="7.05913">
        <time>1970-01-01T00:00:00+00:00</time>
        <ele>2683.0</ele>
      </trkpt>
      <trkpt lat="45.329405" lon="7.058878">
        <time>1970-01-01T00:00:00+00:00</time>
        <ele>2679.0</ele>
      </trkpt>
      <trkpt lat="45.328735" lon="7.058116">
        <time>1970-01-01T00:00:00+00:00</time>
        <ele>2670.0</ele>
      </trkpt>
      <trkpt lat="45.328315" lon="7.057372">
        <time>1970-01-01T00:00:00+00:00</time>
        <ele>2665.0</ele>
      </trkpt>
      <trkpt lat="45.327428" lon="7.056363">
        <time>1970-01-01T00:00:00+00:00</time>
        <ele>2656.0</ele>
      </trkpt>
      <trkpt lat="45.327091" lon="7.056165">
        <time>1970-01-01T00:00:00+00:00</time>
        <ele>2652.0</ele>
      </trkpt>
      <trkpt lat="45.326976" lon="7.055953">
        <time>1970-01-01T00:00:00+00:00</time>
        <ele>2657.0</ele>
      </trkpt>
      <trkpt lat="45.326609" lon="7.055739">
        <time>1970-01-01T00:00:00+00:00</time>
        <ele>2650.0</ele>
      </trkpt>
      <trkpt lat="45.326634" lon="7.05485">
        <time>1970-01-01T00:00:00+00:00</time>
        <ele>2636.0</ele>
      </trkpt>
      <trkpt lat="45.326549" lon="7.054621">
        <time>1970-01-01T00:00:00+00:00</time>
        <ele>2631.0</ele>
      </trkpt>
      <trkpt lat="45.326249" lon="7.054228">
        <time>1970-01-01T00:00:00+00:00</time>
        <ele>2624.0</ele>
      </trkpt>
      <trkpt lat="45.326002" lon="7.053674">
        <time>1970-01-01T00:00:00+00:00</time>
        <ele>2622.0</ele>
      </trkpt>
      <trkpt lat="45.32569" lon="7.05319">
        <time>1970-01-01T00:00:00+00:00</time>
        <ele>2614.0</ele>
      </trkpt>
      <trkpt lat="45.325316" lon="7.052358">
        <time>1970-01-01T00:00:00+00:00</time>
        <ele>2609.0</ele>
      </trkpt>
      <trkpt lat="45.324935" lon="7.05128">
        <time>1970-01-01T00:00:00+00:00</time>
        <ele>2594.0</ele>
      </trkpt>
      <trkpt lat="45.324516" lon="7.05058">
        <time>1970-01-01T00:00:00+00:00</time>
        <ele>2576.0</ele>
      </trkpt>
      <trkpt lat="45.324298" lon="7.05062">
        <time>1970-01-01T00:00:00+00:00</time>
        <ele>2568.0</ele>
      </trkpt>
      <trkpt lat="45.324087" lon="7.050531">
        <time>1970-01-01T00:00:00+00:00</time>
        <ele>2557.0</ele>
      </trkpt>
      <trkpt lat="45.324005" lon="7.050297">
        <time>1970-01-01T00:00:00+00:00</time>
        <ele>2553.0</ele>
      </trkpt>
      <trkpt lat="45.32353" lon="7.049795">
        <time>1970-01-01T00:00:00+00:00</time>
        <ele>2530.0</ele>
      </trkpt>
      <trkpt lat="45.323324" lon="7.049824">
        <time>1970-01-01T00:00:00+00:00</time>
        <ele>2519.0</ele>
      </trkpt>
      <trkpt lat="45.323176" lon="7.049656">
        <time>1970-01-01T00:00:00+00:00</time>
        <ele>2511.0</ele>
      </trkpt>
      <trkpt lat="45.322779" lon="7.049754">
        <time>1970-01-01T00:00:00+00:00</time>
        <ele>2486.0</ele>
      </trkpt>
      <trkpt lat="45.322541" lon="7.049655">
        <time>1970-01-01T00:00:00+00:00</time>
        <ele>2478.0</ele>
      </trkpt>
      <trkpt lat="45.322063" lon="7.049013">
        <time>1970-01-01T00:00:00+00:00</time>
        <ele>2466.0</ele>
      </trkpt>
      <trkpt lat="45.321876" lon="7.048892">
        <time>1970-01-01T00:00:00+00:00</time>
        <ele>2460.0</ele>
      </trkpt>
      <trkpt lat="45.321705" lon="7.049051">
        <time>1970-01-01T00:00:00+00:00</time>
        <ele>2453.0</ele>
      </trkpt>
      <trkpt lat="45.321514" lon="7.049102">
        <time>1970-01-01T00:00:00+00:00</time>
        <ele>2445.0</ele>
      </trkpt>
      <trkpt lat="45.320335" lon="7.048481">
        <time>1970-01-01T00:00:00+00:00</time>
        <ele>2417.0</ele>
      </trkpt>
      <trkpt lat="45.320008" lon="7.048145">
        <time>1970-01-01T00:00:00+00:00</time>
        <ele>2407.0</ele>
      </trkpt>
      <trkpt lat="45.319811" lon="7.048096">
        <time>1970-01-01T00:00:00+00:00</time>
        <ele>2400.0</ele>
      </trkpt>
      <trkpt lat="45.319596" lon="7.04788">
        <time>1970-01-01T00:00:00+00:00</time>
        <ele>2393.0</ele>
      </trkpt>
      <trkpt lat="45.319572" lon="7.047607">
        <time>1970-01-01T00:00:00+00:00</time>
        <ele>2391.0</ele>
      </trkpt>
      <trkpt lat="45.31935" lon="7.04762">
        <time>1970-01-01T00:00:00+00:00</time>
        <ele>2385.0</ele>
      </trkpt>
      <trkpt lat="45.319132" lon="7.046891">
        <time>1970-01-01T00:00:00+00:00</time>
        <ele>2369.0</ele>
      </trkpt>
      <trkpt lat="45.319293" lon="7.046371">
        <time>1970-01-01T00:00:00+00:00</time>
        <ele>2361.0</ele>
      </trkpt>
      <trkpt lat="45.319256" lon="7.046064">
        <time>1970-01-01T00:00:00+00:00</time>
        <ele>2352.0</ele>
      </trkpt>
      <trkpt lat="45.319127" lon="7.045835">
        <time>1970-01-01T00:00:00+00:00</time>
        <ele>2348.0</ele>
      </trkpt>
      <trkpt lat="45.318937" lon="7.045846">
        <time>1970-01-01T00:00:00+00:00</time>
        <ele>2343.0</ele>
      </trkpt>
      <trkpt lat="45.318806" lon="7.046021">
        <time>1970-01-01T00:00:00+00:00</time>
        <ele>2340.0</ele>
      </trkpt>
      <trkpt lat="45.318608" lon="7.045955">
        <time>1970-01-01T00:00:00+00:00</time>
        <ele>2332.0</ele>
      </trkpt>
      <trkpt lat="45.318525" lon="7.045718">
        <time>1970-01-01T00:00:00+00:00</time>
        <ele>2330.0</ele>
      </trkpt>
      <trkpt lat="45.318453" lon="7.044829">
        <time>1970-01-01T00:00:00+00:00</time>
        <ele>2318.0</ele>
      </trkpt>
      <trkpt lat="45.318247" lon="7.043683">
        <time>1970-01-01T00:00:00+00:00</time>
        <ele>2302.0</ele>
      </trkpt>
    </trkseg>
  </trk>
</gpx>
